HS9UAC-10 Weather Reports


time (UTC)temp
F
wind
direction
speed
knots
gust
knots
rain 1hr
in
rain 24hr
in
rain mn
in
humidity
%
barometer
mb
20260509185547 95 0 0.0 0.0 0.00 0.00 0.00 74 1006.0
20260509184022 95 0 0.0 0.0 0.00 0.00 0.00 76 1006.0
20260509182458 95 0 0.0 0.0 0.00 0.00 0.00 76 1006.0
20260509180933 95 0 0.0 0.0 0.00 0.00 0.00 76 1006.0
20260509175409 96 0 0.0 0.0 0.00 0.00 0.00 74 1006.0
20260509173844 96 0 0.0 0.0 0.00 0.00 0.00 73 1006.0
20260509172319 96 0 0.0 0.0 0.00 0.00 0.00 73 1006.0
20260509170755 96 0 0.0 0.0 0.00 0.00 0.00 73 1006.0
20260509165231 96 0 0.0 0.0 0.00 0.00 0.00 74 1006.0
20260509163706 96 0 0.0 0.0 0.00 0.00 0.00 76 1007.0
20260509162141 96 0 0.0 0.0 0.00 0.00 0.00 75 1007.0
20260509160616 95 0 0.0 0.0 0.00 0.00 0.00 76 1007.0
20260509155051 94 0 0.0 0.0 0.00 0.00 0.00 81 1007.0
20260509153527 94 0 0.0 0.0 0.00 0.00 0.00 85 1007.0
20260509152002 92 0 0.0 0.0 0.00 0.00 0.00 89 1007.0
20260509150438 93 0 0.0 0.0 0.00 0.00 0.00 85 1007.0
20260509144913 92 0 0.0 0.0 0.00 0.00 0.00 89 1007.0
20260509143349 93 0 0.0 0.0 0.00 0.00 0.00 89 1007.0
20260509141824 94 0 0.0 0.0 0.00 0.00 0.00 88 1006.0
20260509140300 93 0 0.0 0.0 0.00 0.00 0.00 82 1007.0
20260509134735 95 0 0.0 0.0 0.00 0.00 0.00 77 1006.0
20260509133210 93 0 0.0 0.0 0.00 0.00 0.00 81 1006.0
20260509131646 93 0 0.0 0.0 0.00 0.00 0.00 81 1006.0
20260509125439 95 0 0.0 0.0 0.00 0.00 0.00 76 1006.0
20260509123914 95 0 0.0 0.0 0.00 0.00 0.00 75 1006.0
20260509122349 94 0 0.0 0.0 0.00 0.00 0.00 77 1005.0
20260509120825 95 0 0.0 0.0 0.00 0.00 0.00 76 1005.0
20260509115300 96 0 0.0 0.0 0.00 0.00 0.00 70 1005.0
20260509113735 96 0 0.0 0.0 0.00 0.00 0.00 68 1005.0
20260509112210 99 0 0.0 0.0 0.00 0.00 0.00 60 1005.0
20260509110646 100 0 0.0 0.0 0.00 0.00 0.00 56 1005.0
20260509105121 99 0 0.0 0.0 0.00 0.00 0.00 57 1004.0
20260509103557 100 0 0.0 0.0 0.00 0.00 0.00 56 1004.0
20260509102032 103 0 0.0 0.0 0.00 0.00 0.00 50 1004.0
20260509100507 103 0 0.0 0.0 0.00 0.00 0.00 48 1004.0
20260509094943 107 0 0.0 0.0 0.00 0.00 0.00 45 1004.0
20260509093418 104 0 0.0 0.0 0.00 0.00 0.00 47 1004.0
20260509091854 105 0 0.0 0.0 0.00 0.00 0.00 48 1004.0
20260509090329 107 0 0.0 0.0 0.00 0.00 0.00 45 1004.0
20260509084805 109 0 0.0 0.0 0.00 0.00 0.00 42 1004.0
20260509083240 108 0 0.0 0.0 0.00 0.00 0.00 43 1005.0
20260509081715 110 0 0.0 0.0 0.00 0.00 0.00 42 1005.0
20260509080150 111 0 0.0 0.0 0.00 0.00 0.00 39 1005.0
20260509074626 108 0 0.0 0.0 0.00 0.00 0.00 45 1005.0
20260509073101 105 0 0.0 0.0 0.00 0.00 0.00 49 1006.0
20260509071536 105 0 0.0 0.0 0.00 0.00 0.00 50 1006.0
20260509070012 102 0 0.0 0.0 0.00 0.00 0.00 54 1006.0
20260509064447 103 0 0.0 0.0 0.00 0.00 0.00 53 1006.0
20260509062923 102 0 0.0 0.0 0.00 0.00 0.00 54 1006.0
20260509061358 101 0 0.0 0.0 0.00 0.00 0.00 55 1006.0
20260509055833 103 0 0.0 0.0 0.00 0.00 0.00 52 1006.0
20260509054309 101 0 0.0 0.0 0.00 0.00 0.00 56 1007.0
20260509052744 98 0 0.0 0.0 0.00 0.00 0.00 57 1007.0
20260509051219 98 0 0.0 0.0 0.00 0.00 0.00 57 1007.0
20260509045655 100 0 0.0 0.0 0.00 0.00 0.00 56 1007.0
20260509044130 100 0 0.0 0.0 0.00 0.00 0.00 59 1008.0
20260509042606 101 0 0.0 0.0 0.00 0.00 0.00 56 1008.0
20260509041041 100 0 0.0 0.0 0.00 0.00 0.00 58 1008.0
20260509035517 99 0 0.0 0.0 0.00 0.00 0.00 59 1008.0
20260509033952 100 0 0.0 0.0 0.00 0.00 0.00 59 1008.0
20260509032428 96 0 0.0 0.0 0.00 0.00 0.00 65 1008.0
20260509030903 98 0 0.0 0.0 0.00 0.00 0.00 66 1008.0
20260509025339 98 0 0.0 0.0 0.00 0.00 0.00 69 1009.0
20260509023814 97 0 0.0 0.0 0.00 0.00 0.00 72 1009.0
20260509022249 95 0 0.0 0.0 0.00 0.00 0.00 76 1009.0
20260509020725 95 0 0.0 0.0 0.00 0.00 0.00 77 1009.0
20260509015200 95 0 0.0 0.0 0.00 0.00 0.00 80 1009.0
20260509013636 94 0 0.0 0.0 0.00 0.00 0.00 86 1009.0
20260509012111 93 0 0.0 0.0 0.00 0.00 0.00 89 1009.0
20260509010546 92 0 0.0 0.0 0.00 0.00 0.00 90 1009.0
20260509005022 92 0 0.0 0.0 0.00 0.00 0.00 91 1009.0
20260509003457 91 0 0.0 0.0 0.00 0.00 0.00 94 1009.0
20260509001933 90 0 0.0 0.0 0.00 0.00 0.00 95 1008.0
20260509000410 89 0 0.0 0.0 0.00 0.00 0.00 96 1008.0
20260508234844 89 0 0.0 0.0 0.00 0.00 0.00 96 1008.0
20260508233319 88 0 0.0 0.0 0.00 0.00 0.00 97 1008.0
20260508231755 89 0 0.0 0.0 0.00 0.00 0.00 95 1008.0
20260508230230 88 0 0.0 0.0 0.00 0.00 0.00 97 1007.0
20260508224705 88 0 0.0 0.0 0.00 0.00 0.00 96 1007.0
20260508223141 89 0 0.0 0.0 0.00 0.00 0.00 93 1007.0
20260508221616 88 0 0.0 0.0 0.00 0.00 0.00 93 1007.0
20260508220052 89 0 0.0 0.0 0.00 0.00 0.00 91 1006.0
20260508214527 88 0 0.0 0.0 0.00 0.00 0.00 91 1006.0
20260508213002 88 0 0.0 0.0 0.00 0.00 0.00 89 1006.0
20260508211436 89 0 0.0 0.0 0.00 0.00 0.00 84 1007.0
20260508210813 88 0 0.0 0.0 0.00 0.00 0.00 87 1007.0
20260508205248 91 0 0.0 0.0 0.00 0.00 0.00 93 1007.0
20260508203723 91 0 0.0 0.0 0.00 0.00 0.00 93 1006.0
20260508202159 90 0 0.0 0.0 0.00 0.00 0.00 93 1006.0
20260508200634 90 0 0.0 0.0 0.00 0.00 0.00 92 1006.0
20260508195110 91 0 0.0 0.0 0.00 0.00 0.00 89 1007.0
20260508193545 91 0 0.0 0.0 0.00 0.00 0.00 86 1007.0
20260508192021 92 0 0.0 0.0 0.00 0.00 0.00 83 1007.0